| time (UTC) | temp F | wind direction | speed MPH | gust MPH | rain 1hr in | rain 24hr in | rain mn in | humidity % | barometer mb |
| 20260507195016 | 60 | 180 | 2.0 | 8.0 | 0.00 | 0.00 | 0.00 | 79 | 1019.6 |
| 20260507194016 | 60 | 180 | 3.0 | 9.0 | 0.00 | 0.00 | 0.00 | 78 | 1019.7 |
| 20260507193016 | 60 | 225 | 1.0 | 4.0 | 0.00 | 0.00 | 0.00 | 80 | 1019.7 |
| 20260507192016 | 60 | 225 | 0.0 | 3.0 | 0.00 | 0.00 | 0.00 | 79 | 1019.7 |
| 20260507191015 | 60 | 225 | 0.0 | 3.0 | 0.00 | 0.00 | 0.00 | 81 | 1019.7 |
| 20260507190036 | 60 | 225 | 0.0 | 3.0 | 0.00 | 0.00 | 0.00 | 85 | 1019.7 |
| 20260507185015 | 59 | 225 | 0.0 | 2.0 | 0.00 | 0.00 | 0.00 | 84 | 1019.8 |
| 20260507184015 | 59 | 225 | 1.0 | 7.0 | 0.00 | 0.00 | 0.00 | 84 | 1019.9 |
| 20260507183016 | 58 | 203 | 1.0 | 3.0 | 0.00 | 0.00 | 0.00 | 82 | 1019.9 |
| 20260507182016 | 58 | 203 | 1.0 | 5.0 | 0.00 | 0.00 | 0.00 | 83 | 1019.9 |
| 20260507181016 | 58 | 203 | 0.0 | 4.0 | 0.00 | 0.00 | 0.00 | 83 | 1019.9 |
| 20260507180016 | 58 | 203 | 1.0 | 4.0 | 0.00 | 0.00 | 0.00 | 86 | 1019.8 |
| 20260507175016 | 57 | 207 | 0.0 | 0.0 | 0.00 | 0.00 | 0.00 | 87 | 1019.9 |
| 20260507174015 | 56 | 203 | 1.0 | 3.0 | 0.00 | 0.00 | 0.00 | 86 | 1020.0 |
| 20260507173036 | 56 | 203 | 1.0 | 3.0 | 0.00 | 0.01 | 0.00 | 88 | 1020.0 |
| 20260507172015 | 55 | 203 | 1.0 | 3.0 | 0.00 | 0.01 | 0.00 | 88 | 1020.0 |
| 20260507171036 | 55 | 203 | 0.0 | 2.0 | 0.00 | 0.01 | 0.00 | 89 | 1020.1 |
| 20260507170015 | 54 | 207 | 0.0 | 0.0 | 0.00 | 0.01 | 0.00 | 90 | 1020.1 |
| 20260507165015 | 54 | 207 | 0.0 | 0.0 | 0.00 | 0.01 | 0.00 | 87 | 1020.2 |
| 20260507164015 | 53 | 207 | 0.0 | 0.0 | 0.00 | 0.01 | 0.00 | 90 | 1020.2 |
| 20260507163035 | 53 | 203 | 0.0 | 2.0 | 0.00 | 0.01 | 0.00 | 88 | 1020.2 |
| 20260507162038 | 53 | 203 | 0.0 | 1.0 | 0.00 | 0.01 | 0.00 | 91 | 1020.2 |
| 20260507161017 | 53 | 207 | 0.0 | 0.0 | 0.00 | 0.01 | 0.00 | 91 | 1020.2 |
| 20260507160017 | 52 | 207 | 0.0 | 0.0 | 0.00 | 0.01 | 0.00 | 92 | 1020.2 |
| 20260507155017 | 52 | 203 | 0.0 | 2.0 | 0.00 | 0.01 | 0.00 | 94 | 1020.3 |
| 20260507154037 | 52 | 203 | 0.0 | 2.0 | 0.00 | 0.02 | 0.00 | 96 | 1020.3 |
| 20260507153017 | 52 | 203 | 1.0 | 4.0 | 0.00 | 0.02 | 0.00 | 98 | 1020.3 |
| 20260507152017 | 51 | 203 | 0.0 | 3.0 | 0.00 | 0.02 | 0.00 | 97 | 1020.3 |
| 20260507151017 | 51 | 207 | 0.0 | 0.0 | 0.00 | 0.02 | 0.00 | 97 | 1020.3 |
| 20260507150017 | 50 | 207 | 0.0 | 0.0 | 0.00 | 0.02 | 0.00 | 98 | 1020.3 |
| 20260507145017 | 50 | 207 | 0.0 | 0.0 | 0.00 | 0.02 | 0.00 | 98 | 1020.3 |
| 20260507144017 | 50 | 207 | 0.0 | 0.0 | 0.00 | 0.02 | 0.00 | 100 | 1020.2 |
| 20260507143017 | 50 | 207 | 0.0 | 0.0 | 0.00 | 0.03 | 0.00 | 100 | 1020.2 |
| 20260507142017 | 49 | 207 | 0.0 | 0.0 | 0.00 | 0.03 | 0.00 | 100 | 1020.2 |
| 20260507141017 | 49 | 207 | 0.0 | 0.0 | 0.00 | 0.03 | 0.00 | 100 | 1020.1 |
| 20260507140017 | 49 | 207 | 0.0 | 0.0 | 0.00 | 0.03 | 0.00 | 100 | 1020.1 |
| 20260507135017 | 49 | 207 | 0.0 | 0.0 | 0.00 | 0.03 | 0.00 | 100 | 1020.1 |
| 20260507134057 | 49 | 207 | 0.0 | 0.0 | 0.00 | 0.03 | 0.00 | 100 | 1020.2 |
| 20260507133017 | 49 | 207 | 0.0 | 0.0 | 0.00 | 0.03 | 0.00 | 100 | 1020.2 |
| 20260507132037 | 49 | 207 | 0.0 | 0.0 | 0.00 | 0.03 | 0.00 | 100 | 1020.2 |
| 20260507131037 | 49 | 207 | 0.0 | 0.0 | 0.00 | 0.03 | 0.00 | 100 | 1020.1 |
| 20260507130037 | 49 | 207 | 0.0 | 0.0 | 0.00 | 0.03 | 0.00 | 100 | 1020.1 |
| 20260507125017 | 49 | 207 | 0.0 | 0.0 | 0.00 | 0.03 | 0.00 | 100 | 1020.2 |
| 20260507124017 | 49 | 207 | 0.0 | 0.0 | 0.00 | 0.03 | 0.00 | 100 | 1020.2 |
| 20260507123017 | 49 | 207 | 0.0 | 0.0 | 0.00 | 0.04 | 0.00 | 100 | 1020.2 |
| 20260507122017 | 49 | 212 | 0.0 | 0.0 | 0.00 | 0.04 | 0.00 | 100 | 1020.3 |
| 20260507121016 | 49 | 212 | 0.0 | 0.0 | 0.00 | 0.04 | 0.00 | 100 | 1020.3 |
| 20260507120017 | 49 | 212 | 0.0 | 0.0 | 0.00 | 0.04 | 0.00 | 100 | 1020.3 |
| 20260507115016 | 49 | 212 | 0.0 | 0.0 | 0.00 | 0.04 | 0.00 | 100 | 1020.4 |
| 20260507114016 | 49 | 212 | 0.0 | 0.0 | 0.00 | 0.04 | 0.00 | 100 | 1020.4 |
| 20260507113016 | 49 | 212 | 0.0 | 0.0 | 0.00 | 0.04 | 0.00 | 100 | 1020.4 |
| 20260507112017 | 49 | 212 | 0.0 | 0.0 | 0.00 | 0.04 | 0.00 | 100 | 1020.2 |
| 20260507111016 | 49 | 212 | 0.0 | 0.0 | 0.00 | 0.04 | 0.00 | 100 | 1020.3 |
| 20260507110056 | 49 | 212 | 0.0 | 0.0 | 0.00 | 0.04 | 0.00 | 100 | 1020.3 |
| 20260507105016 | 49 | 212 | 0.0 | 0.0 | 0.00 | 0.04 | 0.00 | 100 | 1020.3 |
| 20260507104016 | 49 | 212 | 0.0 | 0.0 | 0.00 | 0.04 | 0.00 | 100 | 1020.4 |
| 20260507103016 | 49 | 212 | 0.0 | 0.0 | 0.00 | 0.04 | 0.00 | 100 | 1020.4 |
| 20260507102016 | 49 | 212 | 0.0 | 0.0 | 0.00 | 0.04 | 0.00 | 100 | 1020.5 |
| 20260507101016 | 49 | 212 | 0.0 | 0.0 | 0.00 | 0.04 | 0.00 | 99 | 1020.4 |
| 20260507100016 | 50 | 212 | 0.0 | 0.0 | 0.00 | 0.04 | 0.00 | 99 | 1020.4 |
| 20260507095017 | 50 | 212 | 0.0 | 0.0 | 0.00 | 0.04 | 0.00 | 98 | 1020.5 |
| 20260507094016 | 50 | 203 | 0.0 | 1.0 | 0.00 | 0.04 | 0.00 | 99 | 1020.7 |
| 20260507093016 | 50 | 212 | 0.0 | 0.0 | 0.00 | 0.04 | 0.00 | 99 | 1020.7 |
| 20260507092016 | 50 | 203 | 1.0 | 5.0 | 0.00 | 0.04 | 0.00 | 99 | 1020.8 |
| 20260507091016 | 50 | 203 | 0.0 | 2.0 | 0.00 | 0.04 | 0.00 | 100 | 1020.8 |
| 20260507090016 | 51 | 212 | 0.0 | 0.0 | 0.00 | 0.04 | 0.00 | 100 | 1020.8 |
| 20260507085016 | 51 | 212 | 0.0 | 0.0 | 0.00 | 0.04 | 0.00 | 100 | 1020.7 |
| 20260507084016 | 51 | 212 | 0.0 | 0.0 | 0.00 | 0.04 | 0.00 | 100 | 1020.7 |
| 20260507083016 | 51 | 212 | 0.0 | 0.0 | 0.00 | 0.04 | 0.00 | 100 | 1020.7 |
| 20260507082016 | 51 | 212 | 0.0 | 0.0 | 0.00 | 0.04 | 0.00 | 100 | 1020.7 |
| 20260507081016 | 51 | 212 | 0.0 | 0.0 | 0.00 | 0.04 | 0.00 | 100 | 1020.6 |
| 20260507080016 | 52 | 212 | 0.0 | 0.0 | 0.00 | 0.04 | 0.00 | 100 | 1020.6 |
| 20260507075016 | 52 | 212 | 0.0 | 0.0 | 0.00 | 0.04 | 0.00 | 100 | 1020.3 |
| 20260507074016 | 52 | 212 | 0.0 | 0.0 | 0.00 | 0.04 | 0.00 | 100 | 1020.2 |
| 20260507073016 | 52 | 212 | 0.0 | 0.0 | 0.00 | 0.04 | 0.00 | 100 | 1020.2 |
| 20260507072016 | 52 | 212 | 0.0 | 0.0 | 0.00 | 0.04 | 0.00 | 100 | 1020.2 |
| 20260507071036 | 52 | 212 | 0.0 | 0.0 | 0.00 | 0.04 | 0.00 | 100 | 1020.2 |
| 20260507070016 | 52 | 212 | 0.0 | 0.0 | 0.00 | 0.04 | 0.04 | 100 | 1020.2 |
| 20260507065015 | 52 | 212 | 0.0 | 0.0 | 0.00 | 0.04 | 0.04 | 100 | 1020.2 |
| 20260507064016 | 52 | 212 | 0.0 | 0.0 | 0.00 | 0.04 | 0.04 | 100 | 1020.2 |
| 20260507063016 | 52 | 212 | 0.0 | 0.0 | 0.00 | 0.04 | 0.04 | 100 | 1020.2 |
| 20260507062015 | 52 | 212 | 0.0 | 0.0 | 0.00 | 0.04 | 0.04 | 100 | 1020.2 |
| 20260507061036 | 52 | 212 | 0.0 | 0.0 | 0.00 | 0.04 | 0.04 | 100 | 1020.2 |
| 20260507060015 | 52 | 212 | 0.0 | 0.0 | 0.00 | 0.04 | 0.04 | 100 | 1020.2 |
| 20260507055036 | 52 | 212 | 0.0 | 0.0 | 0.00 | 0.04 | 0.04 | 100 | 1020.3 |
| 20260507054015 | 52 | 212 | 0.0 | 0.0 | 0.00 | 0.04 | 0.04 | 100 | 1020.4 |
| 20260507053015 | 52 | 212 | 0.0 | 0.0 | 0.00 | 0.04 | 0.04 | 100 | 1020.4 |
| 20260507052015 | 52 | 203 | 0.0 | 1.0 | 0.00 | 0.04 | 0.04 | 100 | 1020.4 |
| 20260507051015 | 52 | 203 | 1.0 | 5.0 | 0.00 | 0.04 | 0.04 | 100 | 1020.4 |
| 20260507050035 | 53 | 203 | 0.0 | 3.0 | 0.00 | 0.04 | 0.04 | 100 | 1020.4 |
| 20260507045036 | 53 | 212 | 0.0 | 0.0 | 0.00 | 0.04 | 0.04 | 100 | 1020.5 |
| 20260507044015 | 53 | 212 | 0.0 | 0.0 | 0.00 | 0.04 | 0.04 | 100 | 1020.3 |
| 20260507043015 | 53 | 212 | 0.0 | 0.0 | 0.00 | 0.04 | 0.04 | 100 | 1020.3 |
| 20260507042055 | 53 | 212 | 0.0 | 0.0 | 0.00 | 0.04 | 0.04 | 100 | 1020.2 |
| 20260507041015 | 53 | 212 | 0.0 | 0.0 | 0.00 | 0.04 | 0.04 | 100 | 1020.2 |
| 20260507040016 | 53 | 212 | 0.0 | 0.0 | 0.00 | 0.04 | 0.04 | 100 | 1020.2 |
| 20260507035015 | 54 | 212 | 0.0 | 0.0 | 0.00 | 0.04 | 0.04 | 100 | 1020.2 |
| 20260507034017 | 54 | 212 | 0.0 | 0.0 | 0.00 | 0.04 | 0.04 | 100 | 1020.2 |
| 20260507033037 | 54 | 212 | 0.0 | 0.0 | 0.00 | 0.04 | 0.04 | 100 | 1020.2 |
| 20260507032017 | 54 | 212 | 0.0 | 0.0 | 0.00 | 0.04 | 0.04 | 100 | 1019.9 |
| 20260507031038 | 54 | 212 | 0.0 | 0.0 | 0.00 | 0.04 | 0.04 | 100 | 1019.8 |
| 20260507030037 | 54 | 203 | 0.0 | 2.0 | 0.00 | 0.04 | 0.04 | 100 | 1019.8 |
| 20260507025017 | 54 | 212 | 0.0 | 0.0 | 0.00 | 0.04 | 0.04 | 100 | 1019.9 |
| 20260507024038 | 54 | 212 | 0.0 | 0.0 | 0.00 | 0.04 | 0.04 | 100 | 1019.8 |
| 20260507023017 | 54 | 212 | 0.0 | 0.0 | 0.00 | 0.04 | 0.04 | 99 | 1019.8 |
| 20260507022017 | 54 | 212 | 0.0 | 0.0 | 0.00 | 0.04 | 0.04 | 99 | 1020.0 |
| 20260507021017 | 54 | 212 | 0.0 | 0.0 | 0.00 | 0.04 | 0.04 | 97 | 1020.0 |
| 20260507020017 | 55 | 212 | 0.0 | 0.0 | 0.00 | 0.04 | 0.04 | 96 | 1020.0 |
| 20260507015017 | 55 | 212 | 0.0 | 0.0 | 0.00 | 0.04 | 0.04 | 96 | 1019.9 |
| 20260507014017 | 55 | 212 | 0.0 | 0.0 | 0.00 | 0.04 | 0.04 | 95 | 1019.7 |
| 20260507013017 | 55 | 212 | 0.0 | 0.0 | 0.00 | 0.04 | 0.04 | 96 | 1019.7 |
| 20260507012017 | 55 | 212 | 0.0 | 0.0 | 0.00 | 0.04 | 0.04 | 96 | 1019.7 |
| 20260507011017 | 56 | 212 | 0.0 | 0.0 | 0.00 | 0.04 | 0.04 | 95 | 1019.8 |
| 20260507010017 | 56 | 203 | 0.0 | 2.0 | 0.00 | 0.04 | 0.04 | 94 | 1019.8 |
| 20260507005017 | 56 | 212 | 0.0 | 0.0 | 0.00 | 0.04 | 0.04 | 95 | 1019.8 |
| 20260507004017 | 56 | 212 | 0.0 | 0.0 | 0.00 | 0.04 | 0.04 | 95 | 1019.8 |
| 20260507003017 | 56 | 212 | 0.0 | 0.0 | 0.00 | 0.04 | 0.04 | 96 | 1019.8 |
| 20260507002017 | 56 | 212 | 0.0 | 0.0 | 0.00 | 0.04 | 0.04 | 95 | 1019.8 |
| 20260507001037 | 56 | 203 | 0.0 | 2.0 | 0.00 | 0.04 | 0.04 | 96 | 1019.7 |
| 20260507000017 | 56 | 212 | 0.0 | 0.0 | 0.00 | 0.04 | 0.04 | 95 | 1019.7 |
| 20260506235017 | 56 | 212 | 0.0 | 0.0 | 0.00 | 0.04 | 0.04 | 95 | 1019.7 |
| 20260506234016 | 56 | 212 | 0.0 | 0.0 | 0.00 | 0.04 | 0.04 | 95 | 1019.7 |
| 20260506233017 | 56 | 212 | 0.0 | 0.0 | 0.00 | 0.04 | 0.04 | 94 | 1019.7 |
| 20260506232056 | 56 | 212 | 0.0 | 0.0 | 0.00 | 0.04 | 0.04 | 94 | 1019.7 |
| 20260506231017 | 56 | 212 | 0.0 | 0.0 | 0.00 | 0.04 | 0.04 | 92 | 1019.9 |
| 20260506230017 | 56 | 212 | 0.0 | 0.0 | 0.00 | 0.04 | 0.04 | 93 | 1019.9 |
| 20260506225016 | 56 | 212 | 0.0 | 0.0 | 0.00 | 0.04 | 0.04 | 94 | 1019.9 |
| 20260506224037 | 56 | 212 | 0.0 | 0.0 | 0.00 | 0.04 | 0.04 | 95 | 1019.8 |
| 20260506223016 | 56 | 212 | 0.0 | 0.0 | 0.00 | 0.04 | 0.04 | 95 | 1019.8 |
| 20260506222017 | 56 | 203 | 0.0 | 2.0 | 0.00 | 0.04 | 0.04 | 96 | 1020.1 |
| 20260506221037 | 55 | 203 | 0.0 | 2.0 | 0.00 | 0.04 | 0.04 | 97 | 1020.1 |
| 20260506220017 | 55 | 212 | 0.0 | 0.0 | 0.00 | 0.04 | 0.04 | 97 | 1020.1 |
| 20260506215016 | 55 | 212 | 0.0 | 0.0 | 0.00 | 0.04 | 0.04 | 98 | 1020.1 |
| 20260506214016 | 55 | 203 | 1.0 | 3.0 | 0.00 | 0.04 | 0.04 | 100 | 1020.1 |
| 20260506213016 | 54 | 203 | 1.0 | 4.0 | 0.00 | 0.04 | 0.04 | 100 | 1020.1 |
| 20260506212017 | 54 | 203 | 1.0 | 3.0 | 0.00 | 0.04 | 0.04 | 100 | 1020.2 |
| 20260506211018 | 54 | 203 | 0.0 | 1.0 | 0.00 | 0.04 | 0.04 | 100 | 1020.1 |
| 20260506210016 | 53 | 212 | 0.0 | 0.0 | 0.00 | 0.04 | 0.04 | 100 | 1020.1 |
| 20260506205017 | 53 | 203 | 1.0 | 3.0 | 0.00 | 0.04 | 0.04 | 100 | 1020.1 |
| 20260506204016 | 53 | 203 | 0.0 | 1.0 | 0.00 | 0.04 | 0.04 | 100 | 1020.1 |
| 20260506203036 | 53 | 203 | 0.0 | 2.0 | 0.00 | 0.04 | 0.04 | 100 | 1020.1 |
| 20260506202056 | 53 | 212 | 0.0 | 0.0 | 0.00 | 0.04 | 0.04 | 100 | 1020.1 |
| 20260506201037 | 53 | 203 | 0.0 | 1.0 | 0.00 | 0.04 | 0.04 | 100 | 1020.0 |
| 20260506200016 | 53 | 203 | 0.0 | 2.0 | 0.00 | 0.04 | 0.04 | 100 | 1020.0 |